STARLINK-3107, 49171

Orbit data source: Space-Track

STARLINK-3107, 49171 is a payload satellite owned by SpaceX/Seattle (US) in LEO that was launched on Tue, 14 Sep 2021 UTC via an FALCON 9 launch vehicle from the Air Force Western Test Range (AFWTR). Payload-class satellites include a variety of spacecraft equipped with specific instruments for various scientific and technological missions. These include communications satellites like Starlink; space stations such as the ISS; scientific satellites like the Hubble; Earth observation satellites from companies like Planet Labs, Umbra, and HawkEye 360; GPS; miniature CubeSats for education and research; and military/defense satellites.

Loading next visibility...
Identifier
49171, 2021-082AT
Orbit
LEO
Country
Flag of USUS
Related business
Manufacturer
SpaceX/Seattle
Mission
Partially operational Commercial Communications
Bus & Motor
STARLINK, Unknown motor
Mass
297 kg wet, ~275 kg dry
Launch date (UTC)
2021-09-14 (4 years ago)
Launch vehicle
FALCON 9
Launch site
Air Force Western Test Range (AFWTR)
Object type
Payload
Rocket body
Debris
Shape & HBR
Box + 1 Pan, 10.1 m
Radar Cross Section
13.562 m², Large (>1 m²)

Expand to show TLE details & history
Last TLE update: 9 hours ago

TLE from 9 hours ago
0 STARLINK-3107
1 49171U 21082AT  25340.60008494  .00006030  00000-0  42063-3 0  9997
2 49171  69.9946 166.3731 0002856 347.1997  12.9093 15.05881201233266
Epoch: 2025-12-06T14:24Z
TLE epoch observation values (Epoch: 2025-12-06T14:24:07.338Z)
Latitude
-0.00003°
Longitude
-125.28299°
Altitude
549.305 km
Speed
7.589 km/s
True Right ascension
11h 05m 29s
True Declination
0° 00' 00"
Sunlit
Object was in daylight at epoch
Visualization orbit readout
Latitude
Unknown
Longitude
Unknown
Altitude
Unknown
Speed
Unknown
Apparent Right ascension
Unknown
Apparent Declination
Unknown
Sunlit
N/A
Visualization observer readout
Local Sidereal Time
21:39:43
Azimuth
Unknown
Elevation
Unknown
Doppler factor
Unknown
Orbital elements
Apogee altitude
548.722 km
Perigee altitude
544.766 km
Semi-major axis
6,924.881 km
Eccentricity
0.00029
Inclination
69.9946°
RAAN
166.3731°
Arg. of periapsis
347.1997°
True anomaly
12.91661°
Mean anomaly
12.9093°
Eccentric anomaly
12.91296°
Mean motion
3.76638 °/min
Orbital period
95.58 mins
BSTAR
0.00042063
Loading maneuver chart data...
Computing Atmospheric mass density...
Loading historical data...
Loading historical data...
Loading historical data...
Loading historical data...
Loading historical data...
Loading historical data...
Loading historical data...

Documentation

Showing up to 5 results
|